Location: Hermaringen
(48.5952°N, 10.2585°E)
Time: 08:52:55
(UTC+00:00)

Injun/Solrad 3 - Pass Details

Date: 27 February 2026
Orbit: 872 x 984 km, 66.8° (Epoch: 9 March)

Event Time Altitude Azimuth Distance (km) Brightness Sun altitude
Rises 18:08:10 0° 318° (NW) 3,593 11.7 -12.1°
Reaches altitude 10° 18:10:56 10° 309° (NW) 2,663 11.1 -12.6°
Maximum altitude 18:16:16 31° 250° (WSW) 1,616 9.9 -13.5°
Drops below altitude 10° 18:21:41 10° 190° (S) 2,707 10.4 -14.4°
Sets 18:24:32 0° 181° (S) 3,661 11.0 -14.8°
